Location: Unspecified
(49.9820°N, 20.4363°E)
Time: 04:44:36
(UTC+02:00)

Vanguard 3 - Pass Details

Date: 16 May 2026
Orbit: 507 x 3204 km, 33.3° (Epoch: 6 June)

Event Time Altitude Azimuth Distance (km) Brightness Sun altitude
Rises 19:44:19 0° 274° (W) 7,063 13.5 4.0°
Reaches altitude 10° 19:50:55 10° 262° (W) 5,797 12.5 3.1°
Maximum altitude 20:01:54 21° 222° (SW) 4,199 11.0 1.5°
Drops below altitude 10° 20:10:19 10° 179° (S) 4,291 10.5 0.4°
Sets 20:14:15 0° 163° (SSE) 4,850 10.7 -0.2°
